sat.trackr.live / text

‹ back to catalog

STARLINK-2497

NORAD 48455 · 2021-040AD

PAYLOAD ACTIVE UNKNOWN

§ Identity

Operator
Country
US
Launch date
2021-05-09
Launch site
AFETR
Launch vehicle
Mass (kg)
RCS (m²)

Purposes: comms

External: N2YO · Heavens-Above · Gunter

§ Orbital elements

Epoch: 2026-05-24T13:17:19.730976Z

Period
94.01 min
Inclination
53.1591°
Eccentricity
0.0001280
Mean motion
15.31714294 rev/d
Perigee alt
469.8 km
Apogee alt
471.6 km
Semi-major
6,848.8 km
B*
1.4565e-4
RAAN
185.5373°
Arg perigee
80.3114°
Mean anomaly
279.8032°
Rev number
27,829

§ Raw data

STARLINK-24971 48455U 21040AD  26144.55370059  .00004159  00000+0  14565-3 0  99962 48455  53.1591 185.5373 0001280  80.3114 279.8032 15.31714294278298

JSON: /api/v1/satellites/48455 · /tle

For live sub-satellite position, see the globe view (requires WebGL).

§ Visibility from observer

Set your observer location to see the next 7 days of passes ≥ 10°. The values pass through the URL so the page stays shareable.

No JS? Fill the form by hand. The geolocation button needs JavaScript.